| time (UTC) | temp F | wind direction | speed knots | gust knots | rain 1hr in | rain 24hr in | rain mn in | humidity % | barometer mb |
| 20260504050358 | 42 | 338 | 0.0 | 0.0 | 0.00 | 0.00 | 0.00 | 79 | 1021.6 |
| 20260504045855 | 42 | 343 | 0.0 | 0.0 | 0.00 | 0.00 | 0.00 | 78 | 1021.7 |
| 20260504045350 | 41 | 343 | 0.0 | 0.0 | 0.00 | 0.00 | 0.00 | 78 | 1021.6 |
| 20260504044847 | 42 | 346 | 0.0 | 0.0 | 0.00 | 0.00 | 0.00 | 76 | 1021.6 |
| 20260504044344 | 42 | 332 | 0.0 | 0.0 | 0.00 | 0.00 | 0.00 | 75 | 1021.6 |
| 20260504043842 | 42 | 331 | 0.0 | 0.0 | 0.00 | 0.00 | 0.00 | 75 | 1021.7 |
| 20260504043338 | 42 | 331 | 0.0 | 0.0 | 0.00 | 0.00 | 0.00 | 76 | 1021.6 |
| 20260504042836 | 42 | 331 | 0.0 | 0.0 | 0.00 | 0.00 | 0.00 | 77 | 1021.7 |
| 20260504042332 | 42 | 331 | 0.0 | 0.0 | 0.00 | 0.00 | 0.00 | 76 | 1021.6 |
| 20260504041828 | 42 | 331 | 0.0 | 0.0 | 0.00 | 0.00 | 0.00 | 75 | 1021.8 |
| 20260504041325 | 42 | 331 | 0.0 | 0.0 | 0.00 | 0.00 | 0.00 | 73 | 1021.4 |
| 20260504040821 | 42 | 331 | 0.0 | 0.0 | 0.00 | 0.00 | 0.00 | 74 | 1021.6 |
| 20260504040319 | 42 | 331 | 0.0 | 0.0 | 0.00 | 0.00 | 0.00 | 72 | 1021.7 |
| 20260504035814 | 42 | 331 | 0.0 | 0.0 | 0.00 | 0.00 | 0.00 | 72 | 1021.8 |
| 20260504035312 | 42 | 331 | 0.0 | 0.0 | 0.00 | 0.00 | 0.00 | 72 | 1021.5 |
| 20260504034809 | 42 | 338 | 0.0 | 0.0 | 0.00 | 0.00 | 0.00 | 72 | 1021.7 |
| 20260504034307 | 42 | 338 | 0.0 | 0.0 | 0.00 | 0.00 | 0.00 | 73 | 1021.8 |
| 20260504033804 | 43 | 338 | 0.0 | 0.0 | 0.00 | 0.00 | 0.00 | 69 | 1021.7 |
| 20260504033301 | 43 | 338 | 0.0 | 0.0 | 0.00 | 0.00 | 0.00 | 70 | 1021.7 |
| 20260504032758 | 43 | 339 | 0.0 | 0.0 | 0.00 | 0.00 | 0.00 | 70 | 1021.6 |
| 20260504032255 | 44 | 339 | 0.0 | 0.0 | 0.00 | 0.00 | 0.00 | 67 | 1021.5 |
| 20260504031751 | 44 | 339 | 0.0 | 0.0 | 0.00 | 0.00 | 0.00 | 69 | 1021.7 |
| 20260504031249 | 44 | 339 | 0.0 | 0.0 | 0.00 | 0.00 | 0.00 | 69 | 1021.7 |
| 20260504030745 | 44 | 339 | 0.0 | 0.0 | 0.00 | 0.00 | 0.00 | 69 | 1021.4 |
| 20260504030242 | 44 | 339 | 0.0 | 0.0 | 0.00 | 0.00 | 0.00 | 68 | 1021.7 |
| 20260504025738 | 44 | 339 | 0.0 | 0.0 | 0.00 | 0.00 | 0.00 | 68 | 1021.5 |
| 20260504025235 | 44 | 339 | 0.0 | 0.0 | 0.00 | 0.00 | 0.00 | 68 | 1021.6 |
| 20260504024732 | 45 | 338 | 0.0 | 0.0 | 0.00 | 0.00 | 0.00 | 68 | 1021.4 |
| 20260504024229 | 45 | 348 | 0.0 | 0.0 | 0.00 | 0.00 | 0.00 | 65 | 1021.6 |
| 20260504023726 | 45 | 335 | 0.0 | 0.0 | 0.00 | 0.00 | 0.00 | 64 | 1021.5 |
| 20260504023222 | 45 | 335 | 0.0 | 0.0 | 0.00 | 0.00 | 0.00 | 65 | 1021.6 |
| 20260504022718 | 45 | 334 | 0.0 | 0.0 | 0.00 | 0.00 | 0.00 | 65 | 1021.6 |
| 20260504022214 | 46 | 334 | 0.0 | 0.0 | 0.00 | 0.00 | 0.00 | 65 | 1021.6 |
| 20260504021712 | 46 | 334 | 0.0 | 0.0 | 0.00 | 0.00 | 0.00 | 63 | 1021.5 |
| 20260504021209 | 46 | 332 | 0.0 | 0.0 | 0.00 | 0.00 | 0.00 | 64 | 1021.4 |
| 20260504020706 | 46 | 332 | 0.0 | 0.0 | 0.00 | 0.00 | 0.00 | 62 | 1021.3 |
| 20260504020201 | 46 | 332 | 0.0 | 0.0 | 0.00 | 0.00 | 0.00 | 63 | 1021.6 |
| 20260504015658 | 46 | 332 | 0.0 | 0.0 | 0.00 | 0.00 | 0.00 | 65 | 1021.1 |
| 20260504015154 | 46 | 332 | 0.0 | 0.0 | 0.00 | 0.00 | 0.00 | 65 | 1021.3 |
| 20260504014650 | 47 | 332 | 0.0 | 0.0 | 0.00 | 0.00 | 0.00 | 61 | 1021.3 |
| 20260504014148 | 47 | 332 | 0.0 | 0.0 | 0.00 | 0.00 | 0.00 | 62 | 1021.1 |
| 20260504013645 | 47 | 332 | 0.0 | 0.0 | 0.00 | 0.00 | 0.00 | 62 | 1021.4 |
| 20260504013142 | 47 | 331 | 0.0 | 0.0 | 0.00 | 0.00 | 0.00 | 66 | 1021.3 |
| 20260504012639 | 47 | 332 | 0.0 | 0.0 | 0.00 | 0.00 | 0.00 | 63 | 1021.0 |
| 20260504012137 | 47 | 332 | 0.0 | 0.0 | 0.00 | 0.00 | 0.00 | 62 | 1020.9 |
| 20260504011633 | 47 | 330 | 0.0 | 0.0 | 0.00 | 0.00 | 0.00 | 64 | 1021.1 |
| 20260504011130 | 47 | 334 | 0.0 | 0.0 | 0.00 | 0.00 | 0.00 | 64 | 1021.0 |
| 20260504010626 | 48 | 322 | 0.0 | 0.0 | 0.00 | 0.00 | 0.00 | 61 | 1021.2 |
| 20260504010122 | 48 | 322 | 0.0 | 0.0 | 0.00 | 0.00 | 0.00 | 61 | 1021.1 |
| 20260504005619 | 48 | 322 | 0.0 | 0.0 | 0.00 | 0.00 | 0.00 | 59 | 1021.0 |
| 20260504005116 | 49 | 322 | 0.0 | 0.0 | 0.00 | 0.00 | 0.00 | 58 | 1020.9 |
| 20260504004614 | 50 | 322 | 0.0 | 0.0 | 0.00 | 0.00 | 0.00 | 56 | 1021.0 |
| 20260504004111 | 50 | 321 | 0.0 | 0.9 | 0.00 | 0.00 | 0.00 | 55 | 1021.0 |
| 20260504003607 | 51 | 317 | 0.9 | 0.9 | 0.00 | 0.00 | 0.00 | 58 | 1020.8 |
| 20260504003104 | 51 | 322 | 0.0 | 0.9 | 0.00 | 0.00 | 0.00 | 51 | 1020.8 |
| 20260504002601 | 51 | 327 | 0.9 | 0.9 | 0.00 | 0.00 | 0.00 | 51 | 1020.8 |
| 20260504002058 | 52 | 345 | 0.9 | 0.9 | 0.00 | 0.00 | 0.00 | 48 | 1020.8 |
| 20260504001556 | 52 | 328 | 0.0 | 0.0 | 0.00 | 0.00 | 0.00 | 48 | 1020.7 |
| 20260504001051 | 52 | 325 | 0.0 | 0.9 | 0.00 | 0.00 | 0.00 | 50 | 1020.8 |
| 20260504000549 | 53 | 328 | 0.0 | 0.0 | 0.00 | 0.00 | 0.00 | 47 | 1020.7 |
| 20260504000047 | 54 | 328 | 2.6 | 2.6 | 0.00 | 0.00 | 0.00 | 47 | 1020.7 |
| 20260503235545 | 55 | 323 | 1.7 | 1.7 | 0.00 | 0.00 | 0.00 | 45 | 1020.5 |
| 20260503235041 | 56 | 333 | 0.9 | 0.9 | 0.00 | 0.00 | 0.00 | 43 | 1020.6 |
| 20260503234538 | 56 | 327 | 1.7 | 2.6 | 0.00 | 0.00 | 0.00 | 36 | 1020.7 |
| 20260503234037 | 56 | 318 | 0.9 | 0.9 | 0.00 | 0.00 | 0.00 | 39 | 1020.8 |
| 20260503233533 | 56 | 338 | 2.6 | 2.6 | 0.00 | 0.00 | 0.00 | 41 | 1020.6 |
| 20260503233029 | 56 | 326 | 2.6 | 2.6 | 0.00 | 0.00 | 0.00 | 44 | 1020.7 |
| 20260503232526 | 57 | 334 | 0.0 | 0.9 | 0.00 | 0.00 | 0.00 | 36 | 1020.6 |
| 20260503232024 | 57 | 321 | 0.0 | 0.9 | 0.00 | 0.00 | 0.00 | 34 | 1020.6 |
| 20260503231521 | 56 | 326 | 0.9 | 1.7 | 0.00 | 0.00 | 0.00 | 35 | 1020.5 |
| 20260503231018 | 57 | 324 | 2.6 | 2.6 | 0.00 | 0.00 | 0.00 | 40 | 1020.5 |
| 20260503230514 | 57 | 315 | 0.9 | 0.9 | 0.00 | 0.00 | 0.00 | 35 | 1020.5 |
| 20260503230012 | 58 | 6 | 0.9 | 0.9 | 0.00 | 0.00 | 0.00 | 35 | 1020.4 |
| 20260503225509 | 58 | 244 | 1.7 | 1.7 | 0.00 | 0.00 | 0.00 | 34 | 1020.6 |
| 20260503225004 | 59 | 339 | 1.7 | 1.7 | 0.00 | 0.00 | 0.00 | 32 | 1020.4 |
| 20260503224502 | 59 | 97 | 0.9 | 1.7 | 0.00 | 0.00 | 0.00 | 32 | 1020.2 |
| 20260503223959 | 60 | 75 | 0.9 | 1.7 | 0.00 | 0.00 | 0.00 | 33 | 1020.6 |
| 20260503223457 | 59 | 308 | 0.9 | 1.7 | 0.00 | 0.00 | 0.00 | 31 | 1020.5 |
| 20260503222952 | 59 | 319 | 2.6 | 4.3 | 0.00 | 0.00 | 0.00 | 32 | 1020.7 |
| 20260503222451 | 60 | 280 | 3.5 | 4.3 | 0.00 | 0.00 | 0.00 | 31 | 1020.8 |
| 20260503221949 | 60 | 256 | 2.6 | 2.6 | 0.00 | 0.00 | 0.00 | 31 | 1020.5 |
| 20260503221447 | 60 | 323 | 2.6 | 4.3 | 0.00 | 0.00 | 0.00 | 31 | 1020.6 |
| 20260503220943 | 60 | 332 | 0.0 | 0.0 | 0.00 | 0.00 | 0.00 | 31 | 1020.5 |
| 20260503220439 | 61 | 276 | 1.7 | 1.7 | 0.00 | 0.00 | 0.00 | 30 | 1020.8 |
| 20260503215937 | 62 | 312 | 1.7 | 2.6 | 0.00 | 0.00 | 0.00 | 30 | 1020.7 |
| 20260503215433 | 61 | 315 | 0.9 | 0.9 | 0.00 | 0.00 | 0.00 | 30 | 1020.5 |
| 20260503214931 | 60 | 280 | 3.5 | 4.3 | 0.00 | 0.00 | 0.00 | 31 | 1020.8 |
| 20260503214429 | 60 | 307 | 0.9 | 1.7 | 0.00 | 0.00 | 0.00 | 30 | 1020.8 |
| 20260503213926 | 60 | 333 | 1.7 | 1.7 | 0.00 | 0.00 | 0.00 | 30 | 1020.4 |
| 20260503213424 | 60 | 200 | 1.7 | 2.6 | 0.00 | 0.00 | 0.00 | 30 | 1020.5 |
| 20260503212920 | 61 | 259 | 4.3 | 5.2 | 0.00 | 0.00 | 0.00 | 31 | 1020.4 |
| 20260503212418 | 62 | 25 | 0.9 | 1.7 | 0.00 | 0.00 | 0.00 | 30 | 1020.4 |
| 20260503211915 | 61 | 325 | 0.9 | 0.9 | 0.00 | 0.00 | 0.00 | 30 | 1020.7 |
| 20260503211412 | 61 | 77 | 1.7 | 1.7 | 0.00 | 0.00 | 0.00 | 30 | 1020.8 |
| 20260503210907 | 59 | 273 | 4.3 | 5.2 | 0.00 | 0.00 | 0.00 | 30 | 1020.9 |
| 20260503210404 | 60 | 279 | 3.5 | 4.3 | 0.00 | 0.00 | 0.00 | 29 | 1020.7 |
| 20260503205859 | 60 | 318 | 0.9 | 0.9 | 0.00 | 0.00 | 0.00 | 30 | 1020.6 |
| 20260503205356 | 62 | 281 | 3.5 | 4.3 | 0.00 | 0.00 | 0.00 | 29 | 1020.9 |
| 20260503204852 | 61 | 326 | 0.9 | 1.7 | 0.00 | 0.00 | 0.00 | 30 | 1020.8 |
| 20260503204349 | 60 | 270 | 2.6 | 4.3 | 0.00 | 0.00 | 0.00 | 30 | 1021.0 |
| 20260503203847 | 59 | 319 | 0.9 | 0.9 | 0.00 | 0.00 | 0.00 | 31 | 1020.8 |
| 20260503203344 | 60 | 278 | 3.5 | 5.2 | 0.00 | 0.00 | 0.00 | 29 | 1021.1 |
| 20260503202841 | 60 | 322 | 0.0 | 0.9 | 0.00 | 0.00 | 0.00 | 30 | 1020.9 |
| 20260503202339 | 61 | 2 | 3.5 | 5.2 | 0.00 | 0.00 | 0.00 | 29 | 1020.9 |
| 20260503201838 | 61 | 39 | 3.5 | 4.3 | 0.00 | 0.00 | 0.00 | 31 | 1020.9 |
| 20260503201334 | 60 | 226 | 2.6 | 4.3 | 0.00 | 0.00 | 0.00 | 30 | 1020.8 |
| 20260503200832 | 61 | 330 | 1.7 | 2.6 | 0.00 | 0.00 | 0.00 | 32 | 1021.3 |
| 20260503200327 | 59 | 344 | 2.6 | 2.6 | 0.00 | 0.00 | 0.00 | 30 | 1021.2 |
| 20260503195825 | 60 | 291 | 6.1 | 7.0 | 0.00 | 0.00 | 0.00 | 30 | 1021.2 |
| 20260503195321 | 60 | 288 | 4.3 | 5.2 | 0.00 | 0.00 | 0.00 | 30 | 1021.2 |
| 20260503194819 | 60 | 16 | 0.0 | 0.9 | 0.00 | 0.00 | 0.00 | 30 | 1021.2 |
| 20260503194314 | 62 | 285 | 3.5 | 5.2 | 0.00 | 0.00 | 0.00 | 29 | 1021.4 |
| 20260503193811 | 60 | 272 | 0.9 | 1.7 | 0.00 | 0.00 | 0.00 | 31 | 1021.3 |
| 20260503193307 | 59 | 324 | 2.6 | 4.3 | 0.00 | 0.00 | 0.00 | 31 | 1021.7 |
| 20260503192803 | 59 | 271 | 3.5 | 4.3 | 0.00 | 0.00 | 0.00 | 31 | 1021.2 |
| 20260503192258 | 60 | 245 | 6.1 | 7.8 | 0.00 | 0.00 | 0.00 | 31 | 1021.4 |
| 20260503191755 | 60 | 54 | 4.3 | 5.2 | 0.00 | 0.00 | 0.00 | 31 | 1021.3 |
| 20260503191252 | 59 | 316 | 0.0 | 0.9 | 0.00 | 0.00 | 0.00 | 32 | 1021.7 |
| 20260503190748 | 59 | 91 | 2.6 | 2.6 | 0.00 | 0.00 | 0.00 | 32 | 1021.5 |
| 20260503190245 | 59 | 337 | 5.2 | 8.7 | 0.00 | 0.00 | 0.00 | 31 | 1021.9 |
| 20260503185742 | 59 | 273 | 5.2 | 6.1 | 0.00 | 0.00 | 0.00 | 31 | 1021.9 |
| 20260503185238 | 60 | 250 | 3.5 | 4.3 | 0.00 | 0.00 | 0.00 | 33 | 1022.0 |
| 20260503184733 | 59 | 78 | 0.9 | 0.9 | 0.00 | 0.00 | 0.00 | 31 | 1021.8 |
| 20260503184230 | 59 | 331 | 1.7 | 2.6 | 0.00 | 0.00 | 0.00 | 31 | 1022.3 |
| 20260503183726 | 59 | 350 | 2.6 | 4.3 | 0.00 | 0.00 | 0.00 | 31 | 1022.0 |
| 20260503183223 | 59 | 238 | 5.2 | 6.1 | 0.00 | 0.00 | 0.00 | 32 | 1022.3 |
| 20260503182721 | 60 | 5 | 0.9 | 0.9 | 0.00 | 0.00 | 0.00 | 32 | 1022.3 |
| 20260503182220 | 59 | 274 | 3.5 | 4.3 | 0.00 | 0.00 | 0.00 | 31 | 1022.3 |
| 20260503181716 | 59 | 7 | 0.9 | 0.9 | 0.00 | 0.00 | 0.00 | 33 | 1022.3 |
| 20260503181213 | 59 | 11 | 0.9 | 1.7 | 0.00 | 0.00 | 0.00 | 32 | 1022.6 |
| 20260503180709 | 57 | 247 | 1.7 | 1.7 | 0.00 | 0.00 | 0.00 | 33 | 1022.2 |
| 20260503180208 | 57 | 141 | 4.3 | 6.1 | 0.00 | 0.00 | 0.00 | 33 | 1022.3 |
| 20260503175704 | 59 | 260 | 4.3 | 5.2 | 0.00 | 0.00 | 0.00 | 32 | 1022.6 |
| 20260503175202 | 58 | 230 | 2.6 | 4.3 | 0.00 | 0.00 | 0.00 | 34 | 1022.3 |
| 20260503174658 | 57 | 64 | 2.6 | 2.6 | 0.00 | 0.00 | 0.00 | 33 | 1022.4 |
| 20260503174156 | 56 | 267 | 5.2 | 7.0 | 0.00 | 0.00 | 0.00 | 34 | 1022.6 |
| 20260503173650 | 55 | 234 | 4.3 | 5.2 | 0.00 | 0.00 | 0.00 | 37 | 1022.7 |
| 20260503173147 | 58 | 299 | 2.6 | 4.3 | 0.00 | 0.00 | 0.00 | 34 | 1022.7 |
| 20260503172644 | 57 | 314 | 0.9 | 0.9 | 0.00 | 0.00 | 0.00 | 33 | 1022.7 |
| 20260503172141 | 56 | 267 | 8.7 | 9.6 | 0.00 | 0.00 | 0.00 | 34 | 1022.6 |
| 20260503171637 | 57 | 349 | 0.9 | 0.9 | 0.00 | 0.00 | 0.00 | 34 | 1022.7 |
| 20260503171135 | 57 | 270 | 3.5 | 6.1 | 0.00 | 0.00 | 0.00 | 35 | 1022.9 |
| 20260503170632 | 55 | 61 | 6.1 | 7.8 | 0.00 | 0.00 | 0.00 | 34 | 1022.9 |
| 20260503170129 | 56 | 242 | 6.1 | 7.8 | 0.00 | 0.00 | 0.00 | 35 | 1023.1 |
| 20260503150520 | 52 | 320 | 2.6 | 4.3 | 0.00 | 0.00 | 0.00 | 40 | 1024.1 |
| 20260503131413 | 47 | 304 | 0.9 | 1.7 | 0.00 | 0.00 | 0.00 | 54 | 1023.6 |
| 20260503130910 | 47 | 255 | 6.1 | 8.7 | 0.00 | 0.00 | 0.00 | 54 | 1023.8 |
| 20260503130408 | 46 | 264 | 4.3 | 5.2 | 0.00 | 0.00 | 0.00 | 55 | 1024.1 |
| 20260503110811 | 37 | 5 | 0.0 | 0.0 | 0.00 | 0.00 | 0.00 | 85 | 1023.4 |
| 20260503110308 | 36 | 348 | 0.0 | 0.0 | 0.00 | 0.00 | 0.00 | 83 | 1023.1 |
| 20260503100235 | 34 | 10 | 0.9 | 0.9 | 0.00 | 0.00 | 0.00 | 88 | 1022.6 |
| 20260503090154 | 34 | 342 | 0.0 | 0.0 | 0.00 | 0.00 | 0.00 | 89 | 1022.4 |
| 20260503081624 | 35 | 334 | 0.0 | 0.0 | 0.00 | 0.00 | 0.00 | 86 | 1022.3 |
| 20260503081121 | 35 | 346 | 0.0 | 0.0 | 0.00 | 0.00 | 0.00 | 85 | 1022.1 |
| 20260503080617 | 35 | 340 | 0.0 | 0.0 | 0.00 | 0.00 | 0.00 | 85 | 1022.1 |
| 20260503080114 | 35 | 336 | 0.0 | 0.0 | 0.00 | 0.00 | 0.00 | 85 | 1022.3 |
| 20260503072551 | 37 | 343 | 0.0 | 0.0 | 0.00 | 0.00 | 0.00 | 82 | 1021.8 |
| 20260503072048 | 37 | 333 | 0.0 | 0.0 | 0.00 | 0.00 | 0.00 | 81 | 1021.9 |
| 20260503071544 | 37 | 338 | 0.0 | 0.0 | 0.00 | 0.00 | 0.00 | 80 | 1021.9 |
| 20260503071041 | 37 | 314 | 1.7 | 1.7 | 0.00 | 0.00 | 0.00 | 80 | 1021.9 |
| 20260503070537 | 38 | 342 | 0.9 | 0.9 | 0.00 | 0.00 | 0.00 | 80 | 1021.8 |